www.pogodaiklimat.ru

Погода и климат >> Архив погоды >> Кувейт >> Метеостанция Mintribah


ПОГОДА на Метеостанции Mintribah

  • Прогноз погоды на Метеостанции Mintribah
  • Монитор погоды на Метеостанции Mintribah

АРХИВ ПОГОДЫ на Метеостанции Mintribah

Время (UTC), дата Ветер
(напр.,м/с)
 
Видим.   Явления Облачность Т
(С)
Тd
(С)
f
(%)
Тe
(С)
Тes
(С)
Комфортность P
(гПа)
Po
(гПа)
Тmin
(С)
Tmax
(С)
R
(мм)
R24
(мм)
S
(см)
09 16.07 СЗ 15-19
{22}
1400 м мгла {дымка} н/о +45.7 +4.4 8 +43 +43 опасность
перегрева
996.2 983.6
12 16.07 СЗ 14-17
{22}
6000 м дым н/о +45.7 +3.5 8 +43 +43 опасность
перегрева
995.8 983.2
15 16.07 СЗ 12-16
{20}
11 км н/о +42.2 +3.0 9 +39 +39 очень
жарко
995.9 983.1
18 16.07 З 9-12
{20}
20 км н/о +36.7 +7.4 17 +35 +35 очень
жарко
998.5 985.5
21 16.07 З 7-8
{11}
20 км н/о +32.8 +7.7 21 +31 +31 жарко 998.6 985.4 +29.3 +47.4
00 17.07 З 7-8
{11}
20 км н/о +30.7 +7.7 24 +30 +30 жарко 998.2 984.9
03 17.07 З 7-8
{11}
20 км н/о +29.9 +7.8 25 +29 +29 жарко 999.1 985.8
06 17.07 З 11-14
{15}
19 км н/о +38.4 +8.1 16 +36 +36 очень
жарко
999.6 986.6
09 17.07 З 13-19
{19}
11 км дым н/о +43.6 +8.4 12 +41 +41 опасность
перегрева
999.0 986.3
12 17.07 З 13-17
{19}
13 км дым н/о +44.2 +7.0 11 +42 +42 опасность
перегрева
997.6 984.9
15 17.07 З 12-15
{17}
19 км н/о +40.6 +7.9 14 +38 +38 очень
жарко
998.1 985.2
18 17.07 З 7-9
{17}
20 км н/о +35.8 +8.2 18 +34 +34 очень
жарко
999.6 986.5
21 17.07 З 6-7
{9}
20 км н/о +31.6 +8.2 23 +30 +30 жарко 999.7 986.4 +29.3 +44.8
00 18.07 ЮЗ 5-7
{9}
20 км н/о +28.6 +8.7 29 +28 +28 жарко 999.0 985.6
03 18.07 З 8-9
{10}
20 км н/о +29.0 +7.8 26 +28 +28 жарко 999.3 985.9
06 18.07 З 13-16
{16}
14 км н/о +39.2 +8.0 15 +37 +37 очень
жарко
998.6 985.7
09 18.07 СЗ 18-23
{23}
100 м мгла {дымка} н/о +45.2 +4.1 8 +42 +42 опасность
перегрева
996.7 984.0
12 18.07 СЗ 16-21
{24}
1000 м мгла {дымка} н/о +46.1 +4.9 9 +43 +43 опасность
перегрева
995.7 983.1
15 18.07 СЗ 13-17
{21}
10 км дым н/о +43.2 +7.2 12 +41 +41 опасность
перегрева
996.7 984.0
18 18.07 З 11-14
{21}
14 км н/о +38.6 +8.1 16 +37 +37 очень
жарко
997.9 985.0
21 18.07 З 12-14
{15}
15 км н/о +36.2 +8.0 18 +34 +34 очень
жарко
997.5 984.5 +27.7 +47.3
00 19.07 З 10-12
{15}
20 км н/о +33.8 +8.6 21 +32 +32 жарко 997.8 984.7
03 19.07 З 9-11
{13}
20 км н/о +32.2 +7.3 21 +31 +31 жарко 999.0 985.8
06 19.07 З 15-17
{17}
3000 м дым н/о +41.3 +6.4 12 +39 +39 очень
жарко
998.2 985.4
09 19.07 З 17-22
{22}
200 м мгла {дымка} н/о +45.1 +7.9 11 +43 +43 опасность
перегрева
997.9 985.2
12 19.07 З 16-20
{23}
800 м мгла {дымка} н/о +45.8 +4.6 8 +43 +43 опасность
перегрева
996.9 984.3
15 19.07 З 13-17
{23}
7000 м дым н/о +41.8 +4.4 10 +39 +39 очень
жарко
997.4 984.6
18 19.07 З 9-11
{23}
20 км н/о +37.1 +8.0 17 +35 +35 очень
жарко
999.2 986.2
21 19.07 З 6-8
{12}
20 км н/о +33.7 +7.8 20 +32 +32 жарко 999.5 986.3 +31.7 +46.7
00 20.07 З 8-9
{12}
20 км н/о +31.5 +9.4 25 +31 +31 жарко 999.4 986.1
03 20.07 З 9-11
{11}
20 км н/о +30.7 +10.6 29 +31 +31 жарко 1000.5 987.2
06 20.07 З 13-16
{16}
10 км дымка н/о +39.1 +9.3 17 +37 +37 очень
жарко
1000.2 987.3
09 20.07 СЗ 10-14
{17}
18 км н/о +44.7 +8.7 12 +43 +43 опасность
перегрева
999.9 987.2
12 20.07 СЗ 11-14
{17}
12 км н/о +45.6 +9.2 12 +44 +44 опасность
перегрева
998.3 985.6
15 20.07 СЗ 9-12
{16}
14 км н/о +42.3 +8.9 14 +40 +40 очень
жарко
998.6 985.8
18 20.07 З 7-8
{16}
20 км н/о +36.3 +7.5 17 +34 +34 очень
жарко
1000.1 987.0
21 20.07 З 5-6
{8}
20 км н/о +31.7 +7.1 22 +30 +30 жарко 1000.7 987.4 +30.1 +46.2
00 21.07 ЮЗ 7-8
{8}
20 км н/о +29.6 +4.3 20 +28 +28 жарко 1000.5 987.2
03 21.07 З 7-8
{9}
20 км н/о +29.6 +5.0 21 +28 +28 жарко 1001.0 987.6
06 21.07 З 9-12
{12}
18 км н/о +41.6 +5.3 11 +39 +39 очень
жарко
1000.4 987.6
09 21.07 З 8-12
{13}
19 км н/о +45.9 +8.7 11 +44 +44 опасность
перегрева
999.4 986.7
12 21.07 З 8-13
{16}
20 км н/о +48.1 +7.9 9 +46 +46 опасность
перегрева
997.3 984.8
15 21.07 СЗ 8-11
{15}
18 км н/о +44.2 +7.9 12 +42 +42 опасность
перегрева
997.1 984.4
18 21.07 З 7-9
{15}
19 км н/о +38.5 +8.8 17 +37 +37 очень
жарко
998.4 985.5
21 21.07 З 5-6
{9}
20 км н/о +35.7 +10.0 21 +35 +35 очень
жарко
998.9 985.8 +27.2 +48.8
00 22.07 З 6-7
{9}
20 км н/о +33.3 +10.7 25 +33 +33 жарко 998.8 985.6
03 22.07 З 7-8
{8}
20 км н/о +32.2 +10.0 26 +32 +32 жарко 999.6 986.4
06 22.07 СЗ 10-13
{13}
16 км н/о +42.1 +7.5 13 +40 +40 очень
жарко
998.8 986.0
09 22.07 СЗ 12-17
{17}
16 км н/о +47.2 +7.9 10 +45 +45 опасность
перегрева
997.3 984.7
12 22.07 СЗ 10-14
{17}
18 км н/о +48.1 +7.2 9 +46 +46 опасность
перегрева
995.8 983.3
15 22.07 СЗ 10-13
{17}
17 км н/о +43.7 +7.7 12 +42 +42 опасность
перегрева
995.9 983.2
18 22.07 З 5-6
{17}
20 км н/о +37.7 +9.7 18 +36 +36 очень
жарко
997.3 984.3
21 22.07 З 6-7
{9}
20 км н/о +34.7 +6.1 17 +32 +32 жарко 997.2 984.1 +31.6 +48.7
00 23.07 З 6-8
{9}
20 км н/о +32.0 +7.1 21 +30 +30 жарко 997.0 983.8
03 23.07 З 6-7
{8}
20 км н/о +32.1 +8.1 23 +31 +31 жарко 997.7 984.5
06 23.07 СЗ 11-14
{15}
18 км н/о +42.5 +6.9 12 +40 +40 очень
жарко
997.1 984.3

 

Местоположение метеостанции Метеостанция Mintribah (Кувейт): широта 29.82 долгота 47.37 высота над уровнем моря 119 м.

В архиве по умолчанию представлена погода на Метеостанции Mintribah за последнюю неделю. Архивные данные за месяц целиком и за предыдущие месяцы, начиная с января 2011 года, Вы можете получить, выбрав интересующий диапазон дат из раскрывающегося списка и нажав кнопку "Ввод!".


*Определитесь, кто Вы:
робот инопланетянин человек

Внимание! Время в таблицах - всемирное. Для получения местного времени необходимо прибавить поправку, которая равна 3 ч.

Смотрите также архив погоды в соседних городах и на ближайших метеорологических станциях:

Погода на Метеостанции Jal Aliyah (Кувейт) (31 км)
Погода в Абдали (Кувейт) (43 км)
Погода на Метеостанции Sabriyah (Кувейт) (47 км)
Погода в Эль-Джахра (Кувейт) (63 км)
Погода на Абраке Аль Хабари (Кувейт) (68 км)
Погода в Сулайбии (Кувейт) (70 км)
Погода на Экспериментальной ферме (Кувейт) (81 км)
Погода в Минагише (Кувейт) (85 км)
Погода в Кувейт Сити (Кувейт) (85 км)
Погода в Басре аэропорт (Ирак) (87 км)

Пояснения к столбцам:

Ветер - указаны скорость ветра в м/с - средняя за 10 мин, порывы в срок и между сроками (в фигурных скобках) и направление, откуда дует ветер: С - северный, СВ - северо-восточный, В - восточный, ЮВ - юго-восточный, Ю - южный, ЮЗ - юго-западный, З - западный, СЗ - северо-западный.
Видимость - горизонтальная дальность видимости в метрах или километрах. При видимости от 1 до 10 км при отсутствии осадков обычно наблюдается дымка, при ухудшении видимости до 1 км и менее - туман. В сухую погоду видимость может ухудшаться дымом, пылью или мглою.
Явления - указаны атмосферные явления, наблюдавшиеся в срок или в последний час перед сроком; фигурными скобками обозначены явления, наблюдавшиеся между сроками (за 1-3 часа до срока); квадратными скобками обозначены град или гололедные отложения с указанием их диаметра в мм.
Облачность - указаны через наклонную черту общая и нижняя облачность в баллах и высота нижней границы облаков в метрах; квадратными скобками обозначены формы облаков: Ci - перистые, Cs - перисто-слоистые, Cc - перисто-кучевые, Ac - высококучевые, As - высокослоистые, Sc - слоисто-кучевые, Ns - слоисто-дождевые, Cu - кучевые, Cb - кучево-дождевые. Подробнее классификацию облаков см. в Атласе облаков (PDF).
T - Температура воздуха - температура, измеренная на высоте 2 м над землей.
Td - Температура точки росы - температура, при понижении до которой содержащийся в воздухе водяной пар достигнет насыщения.
f - Относительная влажность воздуха - влажноcть воздуха, измеренная на высоте 2 м над землей.
Te - Эффективная температура - температура, которую ощущает одетый по сезону человек в тени. Характеристика душности погоды. При расчете учитывается влияние влажности воздуха и скорости ветра на теплоощущения человека.
Tes - Эффективная температура на солнце - температура, которую ощущает человек, с поправкой на солнечный нагрев. Характеристика знойности погоды. Зависит от высоты солнца над горизонтом, облачности и скорости ветра. Ночью, в пасмурную погоду, а также при ветре 12 м/с и более поправка равна нулю.
P - Атмосферное давление - приведенное к уровню моря атмосферное давление.
Po - Атмосферное давление - измеренное на уровне метеостанции атмосферное давление.
Tmin - Минимальная температура - минимум температуры воздуха на высоте 2 м над землей.
Tmax - Максимальная температура - максимум температуры воздуха на высоте 2 м над землей.
R - Количество осадков - Количество выпавших осадков за период времени, мм. При наведении курсора мыши на число - период времени, за который выпало указанное количество осадков.
R24 - Количество осадков - Количество выпавших осадков за 24 часа, мм.
S - Снежный покров - Высота снежного покрова, см. При наведении курсора мыши на число - состояние снежного покрова и степень покрытия местности в баллах.